www.pogodaiklimat.ru
ПОГОДА в Хоултоне
Время
и дата
00:10 30.01
00:19 30.01
00:34 30.01
00:44 30.01
00:53 30.01
01:53 30.01
02:53 30.01
03:53 30.01
04:53 30.01
05:53 30.01
06:53 30.01
07:53 30.01
08:53 30.01
09:53 30.01
10:53 30.01
11:53 30.01
12:53 30.01
13:53 30.01
14:53 30.01
15:53 30.01
16:53 30.01
17:53 30.01
18:53 30.01
19:53 30.01
20:53 30.01
21:41 30.01
21:53 30.01
22:00 30.01
22:53 30.01
23:36 30.01
23:48 30.01
23:53 30.01
00:00 31.01
00:09 31.01
00:16 31.01
00:28 31.01
00:53 31.01
01:53 31.01
02:26 31.01
02:51 31.01
02:53 31.01
03:04 31.01
03:17 31.01
03:53 31.01
04:53 31.01
05:53 31.01
06:53 31.01
08:04 31.01
Ветер
(напр.,м/с)
Видим. Явления Облачность Т
(С)
Тd
(С)
f
(%)
Тe
(С)
Тes
(С)
Комфортность P
(гПа)
Po
(гПа)
Тmin
(С)
Tmax
(С)
R
(мм)
R24
(мм)
S
(см)
нст 3
{11}
14 км 10/10 120 м -2.2 -3.9 88 -7 -7 996.6
штиль 0 16 км 10/10 180 м -2.8 -3.9 92 -4 -4 996.3
З 4 16 км 10/10 180 м -2.8 -5.0 85 -9 -9 996.6
нст 3 14 км слабый снег 10/10 600 m
[Ns]
-3.3 -5.0 88 -9 -9 996.6
СЗ 6
{8}
14 км слабый снег 10/10 930 m
[Ns]
-3.9 -5.6 88 -12 -12 1015.7 997.0 -3.9 +2.2
СЗ 5 14 км слабый снег 10/10 330 m
[Ns]
-6.7 -9.4 81 -14 -14 1017.2 998.3
СЗ 5 16 км ясно -8.9 -11.7 80 -17 -17 1018.1 999.0
СЗ 3 16 км ясно -10.0 -12.8 80 -16 -16 1019.8 1000.6
СЗ 2 16 км ясно -11.7 -14.4 80 -16 -16 1020.6 1001.6
СЗ 2 16 км ясно -12.8 -15.6 79 -17 -17 1021.3 1002.3
С 2 16 км ясно -12.8 -15.6 79 -17 -17 1021.6 1002.6 -13.9 -3.9 3.0
С 3 16 км ясно -12.8 -16.1 76 -19 -19 1022.0 1003.0
СЗ 3 16 км ясно -11.7 -15.6 73 -18 -17 1023.4 1004.3
СЗ 2 16 км ясно -11.7 -15.6 73 -16 -14 1023.3 1004.3
С 3 16 км ясно -10.0 -14.4 70 -16 -13 1022.4 1003.6
С 3 16 км ясно -8.9 -13.9 67 -15 -11 1021.6 1003.0
штиль 0 н/о ясно 1002.0 -13.9 -8.9
штиль 0 16 км ясно -7.8 -12.8 67 -8 -4 1020.9 1002.0
штиль 0 16 км 10/0 2850 m
[Ac]
-7.2 -12.8 64 -8 -7 1021.0 1002.0
штиль 0 16 км 10/0 2100 m
[Ac]
-7.8 -12.8 67 -8 -8 1020.9 1001.6
штиль 0 16 км 2/0 3000 m
[Ac]
-8.3 -11.7 76 -9 -9 1020.6 1001.6
штиль 0 16 км 8/0 2400 m
[Ac]
-10.0 -12.2 84 -10 -10 1020.7 1001.6
штиль 0 16 км 10/0 2100 m
[Ac]
-8.9 -12.2 77 -9 -9 1021.0 1002.0
штиль 0 8 км слабый снег, дымка 10/10 1260 m
[Ns]
-8.9 -11.1 84 -9 -9 1020.9 1002.0
штиль 0 14 км 10/0 2100 m
[Ac]
-9.4 -11.1 87 -10 -10 1020.6 1001.6
штиль 0 4 км слабый снег, дымка 10/10 1020 m
[Ns]
-9.4 -11.7 83 -10 -10 1001.3
штиль 0 4 км слабый снег, дымка 10/10 1080 m
[Ns]
-9.4 -11.7 83 -10 -10 1020.3 1001.3
штиль 0 5 км слабый снег, дымка 10/10 1140 m
[Ns]
-9.4 -11.7 83 -10 -10 1001.0
штиль 0 14 км 10/8 1650 m
[Ac]
-9.4 -11.7 83 -10 -10 1019.9 1001.0
штиль 0 3 км слабый снег, дымка 10/10 1020 m
[Ns]
-9.4 -11.7 83 -10 -10 1001.0
штиль 0 3 км слабый снег, дымка 10/10 900 m
[Ns]
-9.0 -11.0 85 -10 -10 1000.6
С 2 3 км слабый снег, дымка 10/10 900 m
[Ns]
-9.4 -11.1 87 -14 -14 1019.8 1000.6
штиль 0 3 км слабый снег, дымка 10/10 780 m
[Ns]
-9.4 -11.1 87 -10 -10 1000.6
штиль 0 2 км слабый снег, дымка 10/10 720 m
[Ns]
-9.4 -11.1 87 -10 -10 1000.3
штиль 0 3 км слабый снег, дымка 10/10 960 m
[Ns]
-9.4 -11.1 87 -10 -10 1000.3
штиль 0 8 км слабый снег, дымка 10/8 1200 m
[Ac Ns]
-9.4 -11.1 87 -10 -10 1000.3
штиль 0 8 км слабый снег, дымка 10/2 1470 m
[Ac Ns]
-10.6 -11.1 96 -11 -11 1000.0 -10.6 -8.9
штиль 0 11 км слабый снег 10/10 1500 m
[Ns]
-10.0 -11.7 87 -10 -10 1019.1 1000.0
штиль 0 4 км слабый снег, дымка 10/10 1200 m
[Ns]
-10.0 -11.7 87 -10 -10 1000.0
штиль 0 5 км слабый снег, дымка 10/10 1050 m
[Ns]
-10.0 -12.0 85 -10 -10 1000.0
штиль 0 5 км слабый снег, дымка 10/10 1050 m
[Ns]
-10.0 -11.7 87 -10 -10 1018.8 1000.0
штиль 0 4 км слабый снег, дымка 10/10 1050 m
[Ns]
-10.0 -12.2 84 -10 -10 999.6
штиль 0 6 км слабый снег, дымка 10/5 1050 m
[Ac Ns]
-10.0 -12.2 84 -10 -10 999.6
штиль 0 8 км дымка 10/10 1800 м -10.6 -12.2 88 -11 -11 1018.7 999.6
штиль 0 16 км 10/0 3000 m
[Ac]
-10.6 -12.2 88 -11 -11 1018.5 999.3
штиль 0 8 км слабый снег, дымка 10/8 1200 m
[Ac Ns]
-10.6 -12.8 84 -11 -11 1018.1 999.0
нст 2 5 км слабый снег, дымка 10/5 840 m
[Ac Ns]
-9.4 -11.7 83 -14 -14 1018.2 999.0 -10.6 -9.4
ЮЗ 2 3 км слабый снег, дымка 10/10 1170 m
[Ns]
-10.0 -11.7 87 -15 -15 1000.0
Местоположение метеостанции Houlton International Airport: широта 46.1231 долгота -67.7919 высота над уровнем моря 149 м.
В архиве по умолчанию представлена погода в Хоултоне за последние 1-2 суток. Обновление информации о фактической погоде в базе происходит ежечасно! Архивные данные за месяц целиком и за предыдущие месяцы Вы можете получить, выбрав интересующий диапазон дат из раскрывающегося списка и нажав кнопку "Ввод!".
Внимание! Архив погоды МЕТАР в базе сайта по станциям, не включенным в климатический монитор, хранится не более 60 дней. Нет смысла пытаться выбрать более раннюю дату.
*Определитесь, кто Вы:
Внимание! Время в таблицах - местное (без учета летнего времени). Для получения всемирного времени необходимо вычесть поправку, которая равна -5 ч.
Смотрите также архив погоды в соседних городах и на ближайших метеорологических станциях:
Партнеры нашего сайта:      
Пояснения к столбцам:
  • Ветер - указаны скорость ветра в м/с - средняя за 10 мин, порывы в срок и между сроками (в фигурных скобках) и направление, откуда дует ветер: С - северный,
  • СВ - северо-восточный, В - восточный, ЮВ - юго-восточный, Ю - южный, ЮЗ - юго-западный, З - западный, СЗ - северо-западный.
  • Видимость - горизонтальная дальность видимости в метрах или километрах. При видимости от 1 до 10 км при отсутствии осадков обычно наблюдается дымка, при ухудшении видимости до 1 км и менее - туман. В сухую погоду видимость может ухудшаться дымом, пылью или мглою.
  • Явления - указаны атмосферные явления, наблюдавшиеся в срок или в последний час перед сроком; фигурными скобками обозначены явления, наблюдавшиеся между сроками (за 1-3 часа до срока); квадратными скобками обозначены град или гололедные отложения с указанием их диаметра в мм.
  • Облачность - указаны через наклонную черту общая и нижняя облачность в баллах и высота нижней границы облаков в метрах; квадратными скобками обозначены формы облаков: Ci - перистые, Cs - перисто-слоистые, Cc - перисто-кучевые, Ac - высококучевые, As - высокослоистые, Sc - слоисто-кучевые, Ns - слоисто-дождевые, Cu - кучевые, Cb - кучево-дождевые. Подробнее классификацию облаков см. в Атласе облаков (PDF).
  • T - Температура воздуха - температура, измеренная на высоте 2 м над землей.
  • Td - Температура точки росы - температура, при понижении до которой содержащийся в воздухе водяной пар достигнет насыщения.
  • f - Относительная влажность воздуха - влажноcть воздуха, измеренная на высоте 2 м над землей.
  • Te - Эффективная температура - температура, которую ощущает одетый по сезону человек в тени. Характеристика душности погоды. При расчете учитывается влияние влажности воздуха и скорости ветра на теплоощущения человека.
  • Tes - Эффективная температура на солнце - температура, которую ощущает человек, с поправкой на солнечный нагрев. Характеристика знойности погоды. Зависит от высоты солнца над горизонтом, облачности и скорости ветра. Ночью, в пасмурную погоду, а также при ветре 12 м/с и более поправка равна нулю.
  • P - Атмосферное давление - приведенное к уровню моря атмосферное давление.
  • Po - Атмосферное давление - измеренное на уровне метеостанции атмосферное давление.
  • Tmin - Минимальная температура - минимум температуры воздуха на высоте 2 м над землей.
  • Tmax - Максимальная температура - максимум температуры воздуха на высоте 2 м над землей.
  • R - Количество осадков - Количество выпавших осадков за период времени, мм. При наведении курсора мыши на число - период времени, за который выпало указанное количество осадков.
  • R24 - Количество осадков - Количество выпавших осадков за 24 часа, мм.
  • S - Снежный покров - Высота снежного покрова, см. При наведении курсора мыши на число - состояние снежного покрова и степень покрытия местности в баллах.